Tracking 17842 objects as of 29-August-2016
HD Live streaming from Space Station
objects crossing your sky now

GLOBALSTAR M006

Track GLOBALSTAR M006 now!
10-day predictions
GLOBALSTAR M006 is classified as:


NORAD ID: 25307
Int'l Code: 1998-023B
Perigee: 1,880.3 km
Apogee: 1,880.3 km
Inclination: 52.0 °
Period: 124.3 minutes
Semi major axis: 8251 km
RCS: 2.7065 m2 (large)
Launch date: April 24, 1998
Source: Globalstar (GLOB)
Launch site: AIR FORCE EASTERN TEST RANGE (AFETR)
Your satellite tracking list
Your tracking list is empty





NASA's NSSDC Master Catalog

Two Line Element Set (TLE):
1 25307U 98023B   16241.17205644 -.00000068  00000-0  16638-3 0  9994
2 25307  51.9947 304.1339 0000366 118.6925 267.4699 11.58294155844431
Source of the keplerian elements: AFSPC

N2YO: 494